sat.trackr.live / text

‹ back to catalog

JILIN-1 GAOFEN 03D53

NORAD 54253 · 2022-155C

PAYLOAD ACTIVE UNKNOWN

§ Identity

Operator
Country
PRC
Launch date
2022-11-16
Launch site
JSC
Launch vehicle
Mass (kg)
RCS (m²)

External: N2YO · Heavens-Above · Gunter

§ Orbital elements

Epoch: 2026-05-25T03:17:19.513824Z

Period
92.83 min
Inclination
97.6185°
Eccentricity
0.0006474
Mean motion
15.51206865 rev/d
Perigee alt
408.8 km
Apogee alt
417.6 km
Semi-major
6,791.3 km
B*
4.9260e-4
RAAN
284.2152°
Arg perigee
95.2776°
Mean anomaly
264.9215°
Rev number
19,591

§ Raw data

JILIN-1 GAOFEN 03D531 54253U 22155C   26145.13703141  .00028794  00000+0  49260-3 0  99952 54253  97.6185 284.2152 0006474  95.2776 264.9215 15.51206865195911

JSON: /api/v1/satellites/54253 · /tle

For live sub-satellite position, see the globe view (requires WebGL).

§ Visibility from observer

Set your observer location to see the next 7 days of passes ≥ 10°. The values pass through the URL so the page stays shareable.

No JS? Fill the form by hand. The geolocation button needs JavaScript.